When you browse on this site, cookies collect data to enhance your experience and personalize the content and advertising you see.
Visit our Privacy Policy to learn more. By continuing to use the site, you agree to this use of cookies and data.

Hourly Weather Seversk

Today, 23 September, Wednesday

Time Temperature Precipitation Wind Pressure Humidity
00:00 +13°C° 0 mm 0 mps 759 mmHg 40%
01:00 +13°C° 0 mm 0 mps 759 mmHg 40%
02:00 +12°C° 0 mm 0 mps 759 mmHg 41%
03:00 +12°C° 0 mm 0 mps 759 mmHg 42%
04:00 +12°C° 0 mm 0 mps 759 mmHg 43%
05:00 +11°C° 0 mm 0 mps 759 mmHg 44%
06:00 +11°C° 0 mm 0 mps 759 mmHg 45%
07:00 +13°C° 0 mm 0 mps 759 mmHg 40%
08:00 +18°C° 0 mm 1 mps 759 mmHg 35%
09:00 +21°C° 0 mm 1 mps 759 mmHg 30%
10:00 +22°C° 0 mm 1 mps 759 mmHg 27%
11:00 +24°C° 0 mm 1 mps 758 mmHg 25%
12:00 +26°C° 0 mm 2 mps 758 mmHg 22%
13:00 +27°C° 0 mm 2 mps 758 mmHg 20%
14:00 +27°C° 0 mm 1 mps 757 mmHg 19%
15:00 +28°C° 0 mm 1 mps 757 mmHg 17%
16:00 +27°C° 0 mm 1 mps 757 mmHg 19%
17:00 +25°C° 0 mm 2 mps 756 mmHg 21%
18:00 +24°C° 0 mm 2 mps 756 mmHg 23%
19:00 +21°C° 0 mm 2 mps 756 mmHg 26%
20:00 +19°C° 0 mm 2 mps 756 mmHg 28%
21:00 +18°C° 0 mm 2 mps 756 mmHg 30%
22:00 +17°C° 0 mm 2 mps 756 mmHg 31%
23:00 +17°C° 0 mm 2 mps 756 mmHg 31%

Tomorrow, 24 September, Thursday

Time Temperature Precipitation Wind Pressure Humidity
00:00 +16°C° 0 mm 2 mps 756 mmHg 32%
01:00 +16°C° 0 mm 2 mps 756 mmHg 33%
02:00 +15°C° 0 mm 2 mps 757 mmHg 35%
03:00 +15°C° 0 mm 1 mps 757 mmHg 36%
04:00 +14°C° 0 mm 1 mps 757 mmHg 37%
05:00 +14°C° 0 mm 1 mps 757 mmHg 39%
06:00 +13°C° 0 mm 1 mps 756 mmHg 40%
07:00 +16°C° 0 mm 2 mps 757 mmHg 35%
08:00 +18°C° 0 mm 3 mps 757 mmHg 31%
09:00 +21°C° 0 mm 3 mps 757 mmHg 27%
10:00 +24°C° 0 mm 3 mps 757 mmHg 24%
11:00 +26°C° 0 mm 3 mps 756 mmHg 22%
12:00 +28°C° 0 mm 3 mps 756 mmHg 19%
13:00 +29°C° 0 mm 3 mps 756 mmHg 19%
14:00 +29°C° 0 mm 3 mps 756 mmHg 19%
15:00 +30°C° 0 mm 3 mps 756 mmHg 19%
16:00 +28°C° 0 mm 3 mps 755 mmHg 21%
17:00 +27°C° 0 mm 3 mps 755 mmHg 24%
18:00 +25°C° 0 mm 2 mps 755 mmHg 27%
19:00 +24°C° 0 mm 3 mps 755 mmHg 30%
20:00 +21°C° 0 mm 3 mps 756 mmHg 33%
21:00 +20°C° 0 mm 3 mps 756 mmHg 37%
22:00 +19°C° 0 mm 3 mps 756 mmHg 38%
23:00 +18°C° 0 mm 3 mps 756 mmHg 39%

Day after tomorrow, 25 September, Friday

Time Temperature Precipitation Wind Pressure Humidity
00:00 +18°C° 0 mm 2 mps 756 mmHg 40%
01:00 +17°C° 0 mm 2 mps 756 mmHg 41%
02:00 +16°C° 0 mm 2 mps 756 mmHg 42%
03:00 +16°C° 0 mm 2 mps 756 mmHg 43%
04:00 +15°C° 0 mm 2 mps 756 mmHg 44%
05:00 +15°C° 0 mm 2 mps 756 mmHg 45%
06:00 +14°C° 0 mm 2 mps 756 mmHg 46%
07:00 +17°C° 0 mm 3 mps 756 mmHg 41%
08:00 +19°C° 0 mm 3 mps 756 mmHg 35%
09:00 +21°C° 0 mm 4 mps 756 mmHg 30%
10:00 +23°C° 0 mm 4 mps 755 mmHg 29%
11:00 +26°C° 0 mm 5 mps 755 mmHg 27%
12:00 +28°C° 0 mm 5 mps 755 mmHg 26%
13:00 +28°C° 0 mm 5 mps 755 mmHg 25%
14:00 +29°C° 0 mm 5 mps 754 mmHg 25%
15:00 +29°C° 0 mm 5 mps 754 mmHg 24%
16:00 +28°C° 0 mm 5 mps 754 mmHg 27%
17:00 +27°C° 0 mm 4 mps 754 mmHg 29%
18:00 +25°C° 0 mm 4 mps 753 mmHg 31%
19:00 +23°C° 0 mm 4 mps 753 mmHg 33%
20:00 +22°C° 0 mm 4 mps 754 mmHg 34%
21:00 +20°C° 0 mm 4 mps 754 mmHg 36%
22:00 +19°C° 0 mm 4 mps 753 mmHg 39%
23:00 +19°C° 0 mm 4 mps 753 mmHg 42%

26 September, Saturday

Time Temperature Precipitation Wind Pressure Humidity
00:00 +18°C° 0 mm 4 mps 753 mmHg 45%
01:00 +17°C° 0 mm 4 mps 753 mmHg 46%
02:00 +17°C° 0 mm 4 mps 753 mmHg 47%
03:00 +17°C° 0 mm 4 mps 753 mmHg 48%
04:00 +15°C° 0 mm 4 mps 753 mmHg 49%
05:00 +15°C° 0 mm 4 mps 753 mmHg 50%
06:00 +14°C° 0 mm 4 mps 753 mmHg 51%
07:00 +16°C° 0 mm 5 mps 753 mmHg 46%
08:00 +19°C° 0 mm 6 mps 753 mmHg 42%
09:00 +21°C° 0 mm 6 mps 753 mmHg 38%
10:00 +23°C° 0 mm 6 mps 753 mmHg 31%
11:00 +26°C° 0 mm 7 mps 753 mmHg 25%
12:00 +29°C° 0 mm 7 mps 753 mmHg 19%
13:00 +29°C° 0 mm 7 mps 752 mmHg 17%
14:00 +30°C° 0 mm 7 mps 752 mmHg 16%
15:00 +32°C° 0 mm 7 mps 752 mmHg 14%
16:00 +29°C° 0 mm 7 mps 752 mmHg 16%
17:00 +28°C° 0 mm 6 mps 752 mmHg 18%
18:00 +27°C° 0 mm 5 mps 752 mmHg 21%
19:00 +26°C° 0 mm 6 mps 752 mmHg 25%
20:00 +24°C° 0 mm 7 mps 753 mmHg 30%
21:00 +22°C° 0 mm 7 mps 753 mmHg 34%
22:00 +21°C° 0 mm 7 mps 753 mmHg 39%
23:00 +20°C° 0 mm 7 mps 754 mmHg 43%

27 September, Sunday

Time Temperature Precipitation Wind Pressure Humidity
00:00 +19°C° 0 mm 6 mps 754 mmHg 48%
01:00 +17°C° 0 mm 6 mps 754 mmHg 47%
02:00 +17°C° 0 mm 6 mps 754 mmHg 46%
03:00 +16°C° 0 mm 7 mps 754 mmHg 45%
04:00 +16°C° 0 mm 7 mps 754 mmHg 47%
05:00 +15°C° 0 mm 7 mps 754 mmHg 48%
06:00 +14°C° 0 mm 7 mps 754 mmHg 50%
07:00 +15°C° 0 mm 7 mps 754 mmHg 46%
08:00 +17°C° 0 mm 8 mps 754 mmHg 42%
09:00 +18°C° 0 mm 9 mps 754 mmHg 38%
10:00 +21°C° 0 mm 9 mps 754 mmHg 33%
11:00 +23°C° 0 mm 9 mps 754 mmHg 28%
12:00 +26°C° 0 mm 10 mps 754 mmHg 23%
13:00 +27°C° 0 mm 10 mps 754 mmHg 23%
14:00 +27°C° 0 mm 10 mps 753 mmHg 22%
15:00 +28°C° 0 mm 10 mps 753 mmHg 21%
16:00 +27°C° 0 mm 9 mps 753 mmHg 23%
17:00 +26°C° 0 mm 8 mps 753 mmHg 24%
18:00 +26°C° 0 mm 7 mps 753 mmHg 26%
19:00 +24°C° 0 mm 7 mps 753 mmHg 27%
20:00 +22°C° 0 mm 8 mps 754 mmHg 28%
21:00 +21°C° 0 mm 8 mps 754 mmHg 30%
22:00 +21°C° 0 mm 8 mps 754 mmHg 32%
23:00 +20°C° 0 mm 8 mps 754 mmHg 34%

28 September, Monday

Time Temperature Precipitation Wind Pressure Humidity
00:00 +20°C° 0 mm 8 mps 754 mmHg 36%
01:00 +18°C° 0.2 mm 7 mps 754 mmHg 42%
02:00 +17°C° 0.2 mm 6 mps 754 mmHg 48%
03:00 +16°C° 0.2 mm 5 mps 754 mmHg 54%
04:00 +15°C° 1 mm 6 mps 754 mmHg 58%
05:00 +15°C° 1 mm 7 mps 755 mmHg 63%
06:00 +14°C° 1 mm 7 mps 755 mmHg 67%
07:00 +14°C° 0.9 mm 7 mps 755 mmHg 66%
08:00 +14°C° 0.9 mm 7 mps 755 mmHg 66%
09:00 +14°C° 0.9 mm 7 mps 755 mmHg 65%
10:00 +14°C° 0.5 mm 7 mps 755 mmHg 67%
11:00 +15°C° 0.5 mm 7 mps 755 mmHg 69%
12:00 +15°C° 0.5 mm 7 mps 755 mmHg 71%
13:00 +15°C° 0.6 mm 6 mps 755 mmHg 69%
14:00 +16°C° 0.6 mm 6 mps 754 mmHg 66%
15:00 +16°C° 0.6 mm 5 mps 754 mmHg 64%
16:00 +16°C° 0.2 mm 5 mps 754 mmHg 69%
17:00 +16°C° 0.2 mm 5 mps 753 mmHg 74%
18:00 +17°C° 0.2 mm 4 mps 753 mmHg 79%
19:00 +17°C° 0.3 mm 4 mps 753 mmHg 80%
20:00 +15°C° 0.3 mm 4 mps 753 mmHg 80%
21:00 +15°C° 0.3 mm 4 mps 753 mmHg 81%
22:00 +15°C° 0.1 mm 4 mps 753 mmHg 81%
23:00 +16°C° 0.1 mm 3 mps 753 mmHg 81%
Show more